• In Hungary
  • List of Countries
  • For 7 days
  • Water Temperature
  • Satellite Maps
  • Weather Map
  • News
  • Weather Widgets
  • user-avatar
    Login

    Hourly Weather Kremenec

    Today, 19 September, Wednesday

    Time Temperature Precipitation Wind Pressure Humidity
    00:00 +15°C° 0 mm 2 mps 735 mmHg 77%
    01:00 +15°C° 0 mm 2 mps 735 mmHg 77%
    02:00 +15°C° 0 mm 1 mps 735 mmHg 78%
    03:00 +15°C° 0 mm 1 mps 735 mmHg 79%
    04:00 +14°C° 0 mm 2 mps 735 mmHg 79%
    05:00 +14°C° 0 mm 2 mps 735 mmHg 79%
    06:00 +15°C° 0 mm 2 mps 735 mmHg 77%
    07:00 +16°C° 0 mm 2 mps 735 mmHg 75%
    08:00 +17°C° 0 mm 2 mps 736 mmHg 70%
    09:00 +19°C° 0 mm 2 mps 736 mmHg 64%
    10:00 +21°C° 0 mm 2 mps 736 mmHg 58%
    11:00 +24°C° 0 mm 3 mps 736 mmHg 52%
    12:00 +24°C° 0 mm 3 mps 736 mmHg 49%
    13:00 +25°C° 0 mm 3 mps 736 mmHg 46%
    14:00 +26°C° 0 mm 3 mps 736 mmHg 43%
    15:00 +26°C° 0 mm 2 mps 736 mmHg 47%
    16:00 +25°C° 0 mm 2 mps 735 mmHg 50%
    17:00 +25°C° 0 mm 2 mps 735 mmHg 54%
    18:00 +23°C° 0 mm 1 mps 735 mmHg 58%
    19:00 +21°C° 0 mm 1 mps 735 mmHg 62%
    20:00 +19°C° 0 mm 1 mps 735 mmHg 66%
    21:00 +19°C° 0 mm 1 mps 735 mmHg 67%
    22:00 +18°C° 0 mm 1 mps 735 mmHg 68%
    23:00 +18°C° 0 mm 1 mps 736 mmHg 69%

    Tomorrow, 20 September, Thursday

    Time Temperature Precipitation Wind Pressure Humidity
    00:00 +18°C° 0 mm 1 mps 735 mmHg 70%
    01:00 +16°C° 0 mm 1 mps 735 mmHg 71%
    02:00 +16°C° 0 mm 1 mps 735 mmHg 72%
    03:00 +16°C° 0 mm 1 mps 735 mmHg 73%
    04:00 +15°C° 0 mm 1 mps 735 mmHg 74%
    05:00 +15°C° 0 mm 1 mps 735 mmHg 75%
    06:00 +16°C° 0 mm 1 mps 735 mmHg 72%
    07:00 +18°C° 0 mm 1 mps 735 mmHg 69%
    08:00 +19°C° 0 mm 1 mps 736 mmHg 67%
    09:00 +21°C° 0 mm 1 mps 736 mmHg 61%
    10:00 +23°C° 0 mm 1 mps 736 mmHg 56%
    11:00 +25°C° 0 mm 1 mps 736 mmHg 51%
    12:00 +25°C° 0 mm 1 mps 736 mmHg 48%
    13:00 +26°C° 0 mm 1 mps 736 mmHg 46%
    14:00 +27°C° 0 mm 1 mps 736 mmHg 43%
    15:00 +26°C° 0 mm 1 mps 736 mmHg 46%
    16:00 +26°C° 0 mm 1 mps 735 mmHg 49%
    17:00 +26°C° 0 mm 1 mps 735 mmHg 52%
    18:00 +24°C° 0 mm 1 mps 735 mmHg 55%
    19:00 +22°C° 0 mm 1 mps 735 mmHg 58%
    20:00 +20°C° 0 mm 1 mps 735 mmHg 61%
    21:00 +19°C° 0 mm 1 mps 735 mmHg 62%
    22:00 +19°C° 0 mm 1 mps 735 mmHg 62%
    23:00 +18°C° 0 mm 1 mps 735 mmHg 63%

    Day after tomorrow, 21 September, Friday

    Time Temperature Precipitation Wind Pressure Humidity
    00:00 +18°C° 0 mm 1 mps 735 mmHg 63%
    01:00 +18°C° 0 mm 1 mps 735 mmHg 63%
    02:00 +16°C° 0 mm 1 mps 735 mmHg 63%
    03:00 +16°C° 0 mm 2 mps 734 mmHg 63%
    04:00 +15°C° 0 mm 2 mps 734 mmHg 63%
    05:00 +15°C° 0 mm 2 mps 734 mmHg 62%
    06:00 +16°C° 0 mm 2 mps 734 mmHg 61%
    07:00 +17°C° 0 mm 2 mps 734 mmHg 60%
    08:00 +17°C° 0 mm 3 mps 734 mmHg 59%
    09:00 +19°C° 0 mm 3 mps 734 mmHg 53%
    10:00 +21°C° 0 mm 4 mps 734 mmHg 48%
    11:00 +23°C° 0 mm 4 mps 734 mmHg 43%
    12:00 +25°C° 0 mm 4 mps 734 mmHg 41%
    13:00 +26°C° 0 mm 5 mps 734 mmHg 39%
    14:00 +27°C° 0 mm 5 mps 734 mmHg 38%
    15:00 +26°C° 0 mm 4 mps 733 mmHg 42%
    16:00 +25°C° 0 mm 4 mps 733 mmHg 46%
    17:00 +24°C° 0 mm 3 mps 732 mmHg 51%
    18:00 +22°C° 0 mm 3 mps 732 mmHg 53%
    19:00 +20°C° 0 mm 3 mps 732 mmHg 56%
    20:00 +19°C° 0 mm 3 mps 732 mmHg 59%
    21:00 +18°C° 0 mm 3 mps 732 mmHg 58%
    22:00 +18°C° 0 mm 3 mps 732 mmHg 58%
    23:00 +17°C° 0 mm 3 mps 732 mmHg 58%

    22 September, Saturday

    Time Temperature Precipitation Wind Pressure Humidity
    00:00 +17°C° 0 mm 3 mps 732 mmHg 59%
    01:00 +16°C° 0 mm 3 mps 732 mmHg 60%
    02:00 +16°C° 0 mm 3 mps 732 mmHg 62%
    03:00 +16°C° 0 mm 3 mps 731 mmHg 63%
    04:00 +16°C° 0 mm 2 mps 731 mmHg 65%
    05:00 +15°C° 0 mm 2 mps 731 mmHg 67%
    06:00 +16°C° 0 mm 3 mps 731 mmHg 66%
    07:00 +17°C° 0 mm 3 mps 731 mmHg 65%
    08:00 +18°C° 0 mm 3 mps 731 mmHg 64%
    09:00 +20°C° 0 mm 4 mps 731 mmHg 59%
    10:00 +22°C° 0 mm 4 mps 731 mmHg 53%
    11:00 +23°C° 0 mm 4 mps 732 mmHg 48%
    12:00 +23°C° 0 mm 4 mps 732 mmHg 48%
    13:00 +25°C° 0 mm 4 mps 731 mmHg 49%
    14:00 +25°C° 0 mm 4 mps 731 mmHg 49%
    15:00 +22°C° 0 mm 4 mps 731 mmHg 56%
    16:00 +20°C° 0 mm 5 mps 731 mmHg 64%
    17:00 +19°C° 0 mm 5 mps 731 mmHg 71%
    18:00 +16°C° 0 mm 5 mps 731 mmHg 72%
    19:00 +14°C° 0 mm 5 mps 731 mmHg 74%
    20:00 +13°C° 0 mm 5 mps 731 mmHg 75%
    21:00 +10°C° 0.8 mm 5 mps 731 mmHg 79%
    22:00 +9°C° 0.8 mm 5 mps 731 mmHg 82%
    23:00 +8°C° 0.8 mm 6 mps 731 mmHg 86%

    23 September, Sunday

    Time Temperature Precipitation Wind Pressure Humidity
    00:00 +8°C° 2.3 mm 5 mps 731 mmHg 88%
    01:00 +7°C° 2.3 mm 5 mps 732 mmHg 89%
    02:00 +7°C° 2.3 mm 5 mps 732 mmHg 90%
    03:00 +6°C° 0.2 mm 5 mps 732 mmHg 91%
    04:00 +6°C° 0.2 mm 4 mps 733 mmHg 91%
    05:00 +6°C° 0.2 mm 4 mps 733 mmHg 91%
    06:00 +6°C° 0 mm 4 mps 733 mmHg 90%
    07:00 +7°C° 0 mm 4 mps 733 mmHg 89%
    08:00 +7°C° 0 mm 5 mps 734 mmHg 88%
    09:00 +9°C° 0 mm 5 mps 734 mmHg 78%
    10:00 +12°C° 0 mm 5 mps 734 mmHg 68%
    11:00 +14°C° 0 mm 5 mps 734 mmHg 59%
    12:00 +14°C° 0 mm 4 mps 734 mmHg 55%
    13:00 +15°C° 0 mm 4 mps 734 mmHg 52%
    14:00 +15°C° 0 mm 4 mps 734 mmHg 49%
    15:00 +16°C° 0 mm 3 mps 734 mmHg 51%
    16:00 +16°C° 0 mm 3 mps 733 mmHg 54%
    17:00 +15°C° 0 mm 2 mps 733 mmHg 57%
    18:00 +14°C° 0 mm 2 mps 733 mmHg 60%
    19:00 +13°C° 0 mm 2 mps 733 mmHg 62%
    20:00 +10°C° 0 mm 2 mps 732 mmHg 65%
    21:00 +10°C° 0 mm 2 mps 732 mmHg 65%
    22:00 +10°C° 0 mm 3 mps 732 mmHg 65%
    23:00 +8°C° 0 mm 4 mps 731 mmHg 65%

    24 September, Monday

    Time Temperature Precipitation Wind Pressure Humidity
    00:00 +10°C° 0 mm 4 mps 731 mmHg 62%
    01:00 +9°C° 0 mm 5 mps 730 mmHg 60%
    02:00 +9°C° 0 mm 6 mps 729 mmHg 58%
    03:00 +9°C° 0 mm 6 mps 729 mmHg 57%
    04:00 +10°C° 0 mm 6 mps 728 mmHg 56%
    05:00 +10°C° 0 mm 7 mps 728 mmHg 55%
    06:00 +10°C° 0 mm 7 mps 727 mmHg 55%
    07:00 +11°C° 0 mm 8 mps 727 mmHg 56%
    08:00 +11°C° 0 mm 8 mps 726 mmHg 56%
    09:00 +12°C° 0 mm 8 mps 726 mmHg 57%
    10:00 +15°C° 0 mm 8 mps 726 mmHg 57%
    11:00 +16°C° 0 mm 8 mps 725 mmHg 57%
    12:00 +18°C° 0 mm 8 mps 725 mmHg 55%
    13:00 +21°C° 0 mm 8 mps 725 mmHg 52%
    14:00 +23°C° 0 mm 8 mps 724 mmHg 50%
    15:00 +23°C° 0 mm 7 mps 724 mmHg 53%
    16:00 +22°C° 0 mm 6 mps 723 mmHg 56%
    17:00 +22°C° 0 mm 5 mps 723 mmHg 59%
    18:00 +21°C° 0 mm 6 mps 723 mmHg 59%
    19:00 +20°C° 0 mm 7 mps 723 mmHg 59%
    20:00 +20°C° 0 mm 7 mps 723 mmHg 59%
    21:00 +17°C° 0 mm 7 mps 723 mmHg 64%
    22:00 +16°C° 0 mm 7 mps 724 mmHg 69%
    23:00 +14°C° 0 mm 6 mps 724 mmHg 74%
    Show more